DT_LEITURA;HR_LEITURA;MED-PressaoAtm[hPa];VAL-TempExt[oC];VAL-UmidExt[%UR];VAL-TempInt[oC];VAL-UmidInt[%UR];Dir-Vento[grau];Vel-Vento[m/s];Precipitação[mm/h]
21/04/2026;00:00:00;1010,8;-35,4;26;27,5;80;286;0,2;0,0
21/04/2026;00:05:00;1010,7;-35,4;26;27,5;80;129;0,3;0,0
21/04/2026;00:10:00;1010,7;-35,4;26;27,5;80;77;0,5;0,0
21/04/2026;00:15:00;1010,7;-35,4;26;27,5;80;70;0,3;0,0
21/04/2026;00:20:00;1010,6;-35,4;26;27,5;80;205;0,3;0,0
21/04/2026;00:25:00;1010,6;-35,4;26;27,5;80;216;0,5;0,0
21/04/2026;00:30:00;1010,6;-35,4;26;27,5;80;189;0,4;0,0
21/04/2026;00:35:00;1010,7;-35,4;26;27,5;80;357;0,4;0,0
21/04/2026;00:40:00;1010,7;-35,4;26;27,5;80;308;0,4;0,0
21/04/2026;00:45:00;1010,7;-35,4;26;27,5;80;269;0,4;0,0
21/04/2026;00:50:00;1010,7;-35,4;26;27,5;80;293;0,4;0,0
21/04/2026;00:55:00;1010,6;-35,4;26;27,4;80;278;0,6;0,0
21/04/2026;01:00:00;1010,6;-35,4;26;27,4;80;294;0,3;0,0
21/04/2026;01:05:00;1010,5;-35,4;26;27,4;80;90;0,5;0,0
21/04/2026;01:10:00;1010,4;-35,4;26;27,4;80;328;0,4;0,0
21/04/2026;01:15:00;1010,3;-35,4;26;27,4;80;162;0,3;0,0
21/04/2026;01:20:00;1010,3;-35,4;26;27,3;81;313;0,4;0,0
21/04/2026;01:25:00;1010,3;-35,4;26;27,3;81;275;0,4;0,0
21/04/2026;01:30:00;1010,2;-35,5;26;27,3;81;98;0,5;0,0
21/04/2026;01:35:00;1010,1;-35,5;26;27,3;81;355;0,3;0,0
21/04/2026;01:40:00;1010,1;-35,5;26;27,3;82;266;0,4;0,0
21/04/2026;01:45:00;1010,0;-35,5;26;27,2;82;269;0,6;0,0
21/04/2026;01:50:00;1009,9;-35,5;26;27,2;82;178;0,5;0,0
21/04/2026;01:55:00;1009,8;-35,6;26;27,2;82;325;0,4;0,0
21/04/2026;02:00:00;1009,7;-35,6;26;27,1;83;251;0,4;0,0
21/04/2026;02:05:00;1009,6;-35,6;26;27,1;83;140;0,4;0,0
21/04/2026;02:10:00;1009,6;-35,6;26;27,1;83;37;0,2;0,0
21/04/2026;02:15:00;1009,5;-35,6;26;27,0;83;272;0,3;0,0
21/04/2026;02:20:00;1009,5;-35,6;26;27,0;83;38;0,3;0,0
21/04/2026;02:25:00;1009,4;-35,6;26;27,0;83;70;0,4;0,0
21/04/2026;02:30:00;1009,4;-35,7;26;27,0;84;89;0,5;0,0
21/04/2026;02:35:00;1009,3;-35,7;26;26,9;84;112;0,5;0,0
21/04/2026;02:40:00;1009,2;-35,7;26;26,9;84;154;0,3;0,0
21/04/2026;02:45:00;1009,2;-35,7;26;26,9;84;248;0,4;0,0
21/04/2026;02:50:00;1009,1;-35,7;26;26,9;84;273;0,4;0,0
21/04/2026;02:55:00;1009,1;-35,7;26;26,8;84;323;0,4;0,0
21/04/2026;03:00:00;1009,0;-35,7;26;26,8;85;5;0,2;0,0
21/04/2026;03:05:00;1009,0;-35,7;26;26,8;85;50;0,2;0,0
21/04/2026;03:10:00;1008,9;-35,7;26;26,8;85;51;0,2;0,0
21/04/2026;03:15:00;1008,9;-35,7;26;26,8;85;93;0,5;0,0
21/04/2026;03:20:00;1008,9;-35,7;26;26,7;85;92;0,5;0,0
21/04/2026;03:25:00;1008,9;-35,7;26;26,7;85;116;0,4;0,0
21/04/2026;03:30:00;1008,9;-35,7;26;26,7;85;158;0,3;0,0
21/04/2026;03:35:00;1008,9;-35,7;26;26,6;85;228;0,3;0,0
21/04/2026;03:40:00;1008,8;-35,7;26;26,6;85;177;0,3;0,0
21/04/2026;03:45:00;1008,8;-35,7;26;26,6;85;215;0,4;0,0
21/04/2026;03:50:00;1008,8;-35,7;26;26,6;85;251;0,3;0,0
21/04/2026;03:55:00;1008,8;-35,7;26;26,5;85;297;0,4;0,0
21/04/2026;04:00:00;1008,8;-35,7;26;26,5;85;313;0,4;0,0
21/04/2026;04:05:00;1008,9;-35,7;26;26,5;85;64;0,3;0,0
21/04/2026;04:10:00;1008,9;-35,7;26;26,5;85;152;0,3;0,0
21/04/2026;04:15:00;1008,9;-35,7;26;26,4;85;221;0,2;0,0
21/04/2026;04:20:00;1008,9;-35,7;26;26,4;85;173;0,2;0,0
21/04/2026;04:25:00;1008,9;-35,7;26;26,4;85;85;0,3;0,0
21/04/2026;04:30:00;1009,0;-35,7;26;26,3;85;94;0,3;0,0
21/04/2026;04:35:00;1009,0;-35,7;26;26,3;85;171;0,2;0,0
21/04/2026;04:40:00;1009,1;-35,7;26;26,3;85;177;0,3;0,0
21/04/2026;04:45:00;1009,1;-35,7;26;26,3;85;258;0,3;0,0
21/04/2026;04:50:00;1009,1;-35,7;26;26,3;85;232;0,3;0,0
21/04/2026;04:55:00;1009,0;-35,7;26;26,2;85;242;0,5;0,0
21/04/2026;05:00:00;1009,1;-35,7;26;26,2;86;110;13,9;0,0
21/04/2026;05:05:00;1009,1;-35,7;26;26,2;86;32;0,4;0,0
21/04/2026;05:10:00;1009,1;-35,7;26;26,2;86;214;0,3;0,0
21/04/2026;05:15:00;1009,1;-35,7;26;26,2;86;238;0,3;0,0
21/04/2026;05:20:00;1009,1;-35,7;26;26,2;86;348;0,3;0,0
21/04/2026;05:25:00;1009,1;-35,7;26;26,2;86;114;0,2;0,0
21/04/2026;05:30:00;1009,1;-35,7;26;26,2;86;76;0,3;0,0
21/04/2026;05:35:00;1009,1;-35,7;26;26,2;86;331;0,2;0,0
21/04/2026;05:40:00;1009,3;-35,7;26;26,1;86;203;0,2;0,0
21/04/2026;05:45:00;1009,4;-35,7;26;26,1;86;217;0,2;0,0
21/04/2026;05:50:00;1009,5;-35,7;26;26,1;86;156;0,1;0,0
21/04/2026;05:55:00;1009,5;-35,7;26;26,1;86;197;0,2;0,0
21/04/2026;06:00:00;1009,6;-35,7;26;26,0;86;178;0,3;0,0
21/04/2026;06:05:00;1009,7;-35,7;26;26,0;86;182;0,4;0,0
21/04/2026;06:10:00;1009,7;-35,7;26;26,0;86;249;0,2;0,0
21/04/2026;06:15:00;1009,7;-35,7;26;26,0;87;191;0,3;0,0
21/04/2026;06:20:00;1009,8;-35,7;26;25,9;87;289;0,3;0,0
21/04/2026;06:25:00;1009,8;-35,7;26;25,9;87;40;0,2;0,0
21/04/2026;06:30:00;1009,9;-35,7;26;25,9;87;185;0,3;0,0
21/04/2026;06:35:00;1010,0;-35,7;26;25,9;87;164;0,2;0,0
21/04/2026;06:40:00;1010,0;-35,7;26;25,9;87;159;0,3;0,0
21/04/2026;06:45:00;1010,1;-35,7;26;25,9;87;207;0,2;0,0
21/04/2026;06:50:00;1010,1;-35,7;26;26,0;88;163;0,5;0,0
21/04/2026;06:55:00;1010,1;-35,7;26;26,1;87;179;0,4;0,0
21/04/2026;07:00:00;1010,2;-35,7;26;26,2;87;190;0,3;0,0
21/04/2026;07:05:00;1010,2;-35,7;26;26,2;87;180;0,6;0,0
21/04/2026;07:10:00;1010,3;-35,7;26;26,3;87;186;0,5;0,0
21/04/2026;07:15:00;1010,3;-35,7;26;26,3;87;195;0,5;0,0
21/04/2026;07:20:00;1010,3;-35,7;26;26,3;87;185;0,3;0,0
21/04/2026;07:25:00;1010,3;-35,7;26;26,4;87;167;0,4;0,0
21/04/2026;07:30:00;1010,4;-35,7;26;26,5;87;270;0,4;0,0
21/04/2026;07:35:00;1010,5;-35,7;26;26,6;87;308;0,3;0,0
21/04/2026;07:40:00;1010,5;-35,7;26;26,7;86;339;0,4;0,0
21/04/2026;07:45:00;1010,7;-35,7;26;26,7;86;276;0,3;0,0
21/04/2026;07:50:00;1010,8;-35,7;26;26,9;86;267;0,3;0,0
21/04/2026;07:55:00;1010,9;-35,6;26;27,0;86;292;0,4;0,0
21/04/2026;08:00:00;1010,9;-35,6;26;27,1;85;206;0,4;0,0
21/04/2026;08:05:00;1011,0;-35,6;26;27,2;85;184;0,4;0,0
21/04/2026;08:10:00;1011,0;-35,6;26;27,3;85;164;0,3;0,0
21/04/2026;08:15:00;1011,1;-35,6;26;27,5;84;157;0,4;0,0
21/04/2026;08:20:00;1011,2;-35,5;26;27,6;84;244;0,3;0,0
21/04/2026;08:25:00;1011,2;-35,5;26;27,8;84;301;0,3;0,0
21/04/2026;08:30:00;1011,3;-35,5;26;27,9;83;343;0,3;0,0
21/04/2026;08:35:00;1011,4;-35,5;26;28,1;82;228;0,5;0,0
21/04/2026;08:40:00;1011,5;-35,5;26;28,3;82;190;0,7;0,0
21/04/2026;08:45:00;1011,5;-35,4;26;28,5;81;200;1,0;0,0
21/04/2026;08:50:00;1011,6;-35,4;26;28,6;80;192;0,8;0,0
21/04/2026;08:55:00;1011,6;-35,4;26;28,7;80;127;0,4;0,0
21/04/2026;09:00:00;1011,6;-35,3;26;28,8;80;192;0,6;0,0
21/04/2026;09:05:00;1011,6;-35,3;26;28,9;79;126;0,8;0,0
21/04/2026;09:10:00;1011,6;-35,3;26;29,0;79;196;0,6;0,0
21/04/2026;09:15:00;1011,6;-35,2;26;29,1;79;186;0,6;0,0
21/04/2026;09:20:00;1011,7;-35,2;26;29,2;79;147;0,6;0,0
21/04/2026;09:25:00;1011,7;-35,2;26;29,3;78;84;0,8;0,0
21/04/2026;09:30:00;1011,7;-35,2;26;29,4;78;156;0,4;0,0
21/04/2026;09:35:00;1011,7;-35,1;26;29,5;78;131;0,3;0,0
21/04/2026;09:40:00;1011,7;-35,0;26;29,7;77;84;0,4;0,0
21/04/2026;09:45:00;1011,7;-34,9;26;29,8;77;163;0,4;0,0
21/04/2026;09:50:00;1011,8;-34,8;26;29,9;76;307;0,5;0,0
21/04/2026;09:55:00;1011,8;-34,8;26;29,9;76;288;0,5;0,0
21/04/2026;10:00:00;1011,9;-34,7;26;29,8;75;270;0,6;0,0
21/04/2026;10:05:00;1011,9;-34,7;26;29,8;75;288;0,7;0,0
21/04/2026;10:10:00;1011,9;-34,7;26;29,9;75;264;0,5;0,0
21/04/2026;10:15:00;1011,9;-34,5;26;30,2;75;233;0,3;0,0
21/04/2026;10:20:00;1011,9;-34,2;26;30,4;74;195;0,5;0,0
21/04/2026;10:25:00;1011,9;-33,8;26;30,5;74;144;0,6;0,0
21/04/2026;10:30:00;1011,9;-33,3;26;30,7;73;212;0,4;0,0
21/04/2026;10:35:00;1011,9;-33,0;26;30,7;73;80;0,9;0,0
21/04/2026;10:40:00;1011,9;-32,6;26;30,8;72;64;0,9;0,0
21/04/2026;10:45:00;1011,9;-32,0;26;30,9;72;62;0,7;0,0
21/04/2026;10:50:00;1011,9;-31,6;26;31,0;72;312;0,5;0,0
21/04/2026;10:55:00;1011,8;-31,2;26;31,0;72;239;0,7;0,0
21/04/2026;11:00:00;1011,8;-31,0;24;31,0;71;271;0,9;0,0
21/04/2026;11:05:00;1011,8;-30,8;23;30,9;70;275;0,7;0,0
21/04/2026;11:10:00;1011,8;-30,5;23;31,0;71;252;0,6;0,0
21/04/2026;11:15:00;1011,8;-30,0;22;31,1;70;247;0,6;0,0
21/04/2026;11:20:00;1011,8;-29,1;21;31,2;69;267;1,0;0,0
21/04/2026;11:25:00;1011,8;-27,5;21;31,4;69;282;0,8;0,0
21/04/2026;11:30:00;1011,7;-25,5;20;31,5;68;252;1,0;0,0
21/04/2026;11:35:00;1011,8;-24,2;20;31,6;68;234;0,7;0,0
21/04/2026;11:40:00;1011,9;-23,2;19;31,6;68;167;0,7;0,0
21/04/2026;11:45:00;1011,8;-22,4;19;31,7;68;66;1,2;0,0
21/04/2026;11:50:00;1011,7;-21,8;19;31,7;67;69;1,1;0,0
21/04/2026;11:55:00;1011,7;-21,4;18;31,6;67;83;0,7;0,0
21/04/2026;12:00:00;1011,6;-21,3;18;31,6;67;80;0,8;0,0
21/04/2026;12:05:00;1011,6;-21,4;18;31,5;68;77;0,9;0,0
21/04/2026;12:10:00;1011,5;-21,5;18;31,5;69;78;1,0;0,0
21/04/2026;12:15:00;1011,4;-21,7;18;31,4;69;83;1,0;0,0
21/04/2026;12:20:00;1011,4;-22,2;18;31,4;70;74;1,1;0,0
21/04/2026;12:25:00;1011,3;-23,1;18;31,2;70;66;2,0;0,0
21/04/2026;12:30:00;1011,3;-25,5;22;30,8;72;72;1,4;0,0
21/04/2026;12:35:00;1011,3;-27,9;25;30,5;72;65;1,7;0,0
21/04/2026;12:40:00;1011,2;-29,6;25;30,3;73;80;1,2;0,0
21/04/2026;12:45:00;1011,1;-30,5;26;30,2;73;78;1,0;0,0
21/04/2026;12:50:00;1010,9;-31,0;26;30,2;74;83;0,9;0,0
21/04/2026;12:55:00;1010,8;-31,4;26;30,2;74;94;0,9;0,0
21/04/2026;13:00:00;1010,6;-31,4;26;30,3;73;81;0,9;0,0
21/04/2026;13:05:00;1010,5;-31,3;26;30,4;73;90;0,8;0,0
21/04/2026;13:10:00;1010,3;-31,1;26;30,6;73;86;0,8;0,0
21/04/2026;13:15:00;1010,1;-30,8;26;30,7;72;84;0,7;0,0
21/04/2026;13:20:00;1010,0;-30,5;26;30,8;72;92;0,9;0,0
21/04/2026;13:25:00;1009,9;-30,2;26;30,8;72;90;0,9;0,0
21/04/2026;13:30:00;1009,8;-29,7;26;30,9;72;83;0,8;0,0
21/04/2026;13:35:00;1009,6;-29,1;25;31,0;71;92;1,0;0,0
21/04/2026;13:40:00;1009,4;-27,8;23;31,2;70;89;0,8;0,0
21/04/2026;13:45:00;1009,3;-25,8;22;31,3;70;88;0,9;0,0
21/04/2026;13:50:00;1009,1;-24,0;21;31,4;69;96;1,0;0,0
21/04/2026;13:55:00;1009,0;-22,6;20;31,6;69;96;0,9;0,0
21/04/2026;14:00:00;1008,9;-20,9;20;32,0;68;90;0,9;0,0
21/04/2026;14:05:00;1008,8;-18,9;20;32,5;67;89;0,9;0,0
21/04/2026;14:10:00;1008,7;-17,1;20;33,1;65;92;0,8;0,0
21/04/2026;14:15:00;1008,5;-15,8;20;33,7;63;93;1,0;0,0
21/04/2026;14:20:00;1008,4;-16,9;19;34,3;61;94;1,1;0,0
21/04/2026;14:25:00;1008,3;-29,9;17;34,9;59;93;0,9;0,0
21/04/2026;14:30:00;1008,2;-23,1;18;35,2;57;89;0,9;0,0
21/04/2026;14:35:00;1008,3;-28,9;17;35,5;56;95;0,9;0,0
21/04/2026;14:40:00;1008,3;-20,4;17;35,8;55;89;0,8;0,0
21/04/2026;14:45:00;1008,3;-24,1;17;36,2;53;76;1,0;0,0
21/04/2026;14:50:00;1008,3;-26,9;17;36,5;50;72;1,0;0,0
21/04/2026;14:55:00;1008,3;-14,6;18;36,8;49;87;1,1;0,0
21/04/2026;15:00:00;1008,2;-16,3;15;37,2;48;78;1,1;0,0
21/04/2026;15:05:00;1008,2;-15,9;15;37,5;46;80;1,1;0,0
21/04/2026;15:10:00;1008,1;-14,8;15;37,8;45;85;1,1;0,0
21/04/2026;15:15:00;1008,0;-25,0;14;38,0;45;97;1,1;0,0
21/04/2026;15:20:00;1008,0;-25,4;14;38,2;44;81;1,0;0,0
21/04/2026;15:25:00;1008,0;-19,1;15;38,2;43;84;1,0;0,0
21/04/2026;15:30:00;1008,0;-21,8;14;38,2;43;79;0,9;0,0
21/04/2026;15:35:00;1008,0;-27,4;14;37,8;43;63;1,0;0,0
21/04/2026;15:40:00;1008,0;-29,8;14;37,3;44;73;1,2;0,0
21/04/2026;15:45:00;1008,0;-16,9;14;36,9;46;74;1,0;0,0
21/04/2026;15:50:00;1007,9;-14,6;15;36,8;46;78;1,1;0,0
21/04/2026;15:55:00;1007,8;-14,1;15;37,0;46;69;1,2;0,0
21/04/2026;16:00:00;1007,7;-13,8;15;37,4;44;77;1,1;0,0
21/04/2026;16:05:00;1007,7;-13,6;15;37,7;43;72;1,3;0,0
21/04/2026;16:10:00;1007,5;-13,4;15;37,8;43;83;1,4;0,0
21/04/2026;16:15:00;1007,5;-13,1;15;37,9;44;74;1,4;0,0
21/04/2026;16:20:00;1007,4;-13,0;15;37,9;45;81;1,4;0,0
21/04/2026;16:25:00;1007,4;-12,9;15;37,9;45;69;1,5;0,0
21/04/2026;16:30:00;1007,4;-12,8;15;37,6;46;67;1,4;0,0
21/04/2026;16:35:00;1007,5;-12,9;14;36,8;48;70;1,4;0,0
21/04/2026;16:40:00;1007,6;-12,9;14;36,2;50;66;1,0;0,0
21/04/2026;16:45:00;1007,7;-12,9;14;35,7;51;63;1,0;0,0
21/04/2026;16:50:00;1007,7;-12,9;14;35,3;52;59;1,3;0,0
21/04/2026;16:55:00;1007,8;-13,0;14;35,0;52;67;1,1;0,0
21/04/2026;17:00:00;1007,8;-13,1;14;34,6;53;65;1,4;0,0
21/04/2026;17:05:00;1007,8;-13,2;14;34,2;55;68;1,0;0,0
21/04/2026;17:10:00;1007,8;-13,3;14;33,8;56;69;1,3;0,0
21/04/2026;17:15:00;1007,8;-13,4;14;33,5;57;65;1,2;0,0
21/04/2026;17:20:00;1007,8;-13,5;14;33,3;58;76;1,2;0,0
21/04/2026;17:25:00;1007,8;-13,6;13;33,1;59;71;1,1;0,0
21/04/2026;17:30:00;1007,8;-14,1;13;32,9;61;67;0,9;0,0
21/04/2026;17:35:00;1007,8;-14,0;13;32,8;62;69;0,9;0,0
21/04/2026;17:40:00;1007,8;-13,4;14;32,7;62;66;1,1;0,0
21/04/2026;17:45:00;1007,8;-12,2;15;32,5;63;66;0,9;0,0
21/04/2026;17:50:00;1007,9;-12,3;15;32,4;63;69;0,8;0,0
21/04/2026;17:55:00;1008,1;-12,3;15;32,3;63;64;0,9;0,0
21/04/2026;18:00:00;1008,2;-12,4;15;32,2;63;65;0,8;0,0
21/04/2026;18:05:00;1008,3;-12,6;15;32,1;64;68;0,6;0,0
21/04/2026;18:10:00;1008,4;-12,9;15;32,0;65;65;0,8;0,0
21/04/2026;18:15:00;1008,6;-13,1;15;31,9;65;67;0,9;0,0
21/04/2026;18:20:00;1008,7;-13,5;15;31,7;65;71;1,1;0,0
21/04/2026;18:25:00;1008,8;-14,1;15;31,5;66;69;1,2;0,0
21/04/2026;18:30:00;1008,8;-14,7;15;31,4;66;70;1,2;0,0
21/04/2026;18:35:00;1008,8;-15,6;15;31,2;67;66;1,1;0,0
21/04/2026;18:40:00;1008,8;-16,7;15;31,1;68;77;0,9;0,0
21/04/2026;18:45:00;1008,8;-18,0;15;31,0;68;92;0,8;0,0
21/04/2026;18:50:00;1008,9;-19,4;15;30,8;69;81;1,0;0,0
21/04/2026;18:55:00;1008,9;-20,4;16;30,7;70;72;1,0;0,0
21/04/2026;19:00:00;1009,1;-21,1;16;30,6;70;70;1,1;0,0
21/04/2026;19:05:00;1009,1;-21,6;17;30,5;71;66;1,2;0,0
21/04/2026;19:10:00;1009,2;-22,2;18;30,4;71;70;1,1;0,0
21/04/2026;19:15:00;1009,3;-22,9;19;30,4;71;69;1,1;0,0
21/04/2026;19:20:00;1009,3;-23,8;19;30,3;71;89;1,1;0,0
21/04/2026;19:25:00;1009,3;-25,1;21;30,2;71;83;1,2;0,0
21/04/2026;19:30:00;1009,3;-26,7;24;30,1;72;80;1,2;0,0
21/04/2026;19:35:00;1009,4;-28,0;25;29,9;73;83;1,5;0,0
21/04/2026;19:40:00;1009,5;-29,2;26;29,7;74;71;1,6;0,0
21/04/2026;19:45:00;1009,7;-30,0;26;29,6;75;67;1,6;0,0
21/04/2026;19:50:00;1009,8;-30,7;26;29,5;76;62;1,6;0,0
21/04/2026;19:55:00;1009,7;-31,2;26;29,4;76;73;1,8;0,0
21/04/2026;20:00:00;1009,8;-31,7;26;29,3;76;81;1,8;0,0
21/04/2026;20:05:00;1009,9;-32,0;26;29,3;76;71;1,8;0,0
21/04/2026;20:10:00;1010,0;-32,2;26;29,3;76;58;1,5;0,0
21/04/2026;20:15:00;1010,0;-32,5;26;29,3;76;69;1,3;0,0
21/04/2026;20:20:00;1010,1;-32,7;26;29,3;76;62;1,5;0,0
21/04/2026;20:25:00;1010,1;-32,9;26;29,2;76;60;1,2;0,0
21/04/2026;20:30:00;1010,1;-33,1;26;29,1;76;48;1,0;0,0
21/04/2026;20:35:00;1010,2;-33,3;26;29,0;77;52;1,1;0,0
21/04/2026;20:40:00;1010,4;-33,5;26;28,9;77;58;1,1;0,0
21/04/2026;20:45:00;1010,5;-33,7;26;28,8;78;49;1,4;0,0
21/04/2026;20:50:00;1010,5;-33,8;26;28,7;78;45;1,1;0,0
21/04/2026;20:55:00;1010,5;-34,0;26;28,6;79;57;1,2;0,0
21/04/2026;21:00:00;1010,5;-34,2;26;28,6;79;63;1,1;0,0
21/04/2026;21:05:00;1010,5;-34,3;26;28,5;79;61;1,4;0,0
21/04/2026;21:10:00;1010,6;-34,3;26;28,5;79;63;1,3;0,0
21/04/2026;21:15:00;1010,8;-34,4;26;28,5;79;68;1,1;0,0
21/04/2026;21:20:00;1011,0;-34,4;26;28,5;79;64;1,7;0,0
21/04/2026;21:25:00;1011,0;-34,4;26;28,5;78;62;1,8;0,0
21/04/2026;21:30:00;1011,1;-34,3;26;28,5;77;65;1,7;0,0
21/04/2026;21:35:00;1011,3;-34,3;26;28,5;77;64;1,9;0,0
21/04/2026;21:40:00;1011,4;-34,3;26;28,4;77;68;1,7;0,0
21/04/2026;21:45:00;1011,5;-34,3;26;28,4;76;64;1,8;0,0
21/04/2026;21:50:00;1011,5;-34,3;26;28,4;76;63;1,7;0,0
21/04/2026;21:55:00;1011,5;-34,4;26;28,3;77;66;2,0;0,0
21/04/2026;22:00:00;1011,5;-34,4;26;28,3;77;62;1,7;0,0
21/04/2026;22:05:00;1011,6;-34,4;26;28,2;77;66;1,5;0,0
21/04/2026;22:10:00;1011,6;-34,5;26;28,2;78;72;1,2;0,0
